Location: Sobotiste
(48.7170°N, 17.4000°E)
Time: 06:46:56
(UTC+02:00)

CAS-6 - Pass Details

Date: 21 March 2026
Orbit: 601 x 618 km, 97.8° (Epoch: 15 April)

Event Time Altitude Azimuth Distance (km) Brightness Sun altitude
Exits shadow 20:32:47 17° 33° (NNE) 1,540 ? -24.0°
Drops below altitude 10° 20:34:23 10° 14° (NNE) 1,961 ? -24.3°
Sets 20:36:58 0° 359° (N) 2,873 ? -24.6°
